contact:dominique.lefevre@mio.osupytheas.fr, maurice.libes@osupytheas.fr, didier.mallarino@osupytheas.fr
Project:EMSO http://www.emso-fr.org/EMSO-France
Depth: 2436.0 m
Title:EMSO Ligure Ouest : Data MII capteur AQUADOPP
Date,Latitude,Longitude,X_East,Y_North,Z_Up,Amplitude_X,Amplitude_Y,Amplitude_Z,Batterie,SoundSpeed,Heading,Pitch,Roll,Pressure,TIS,Speed,Direction
, degrees North, degrees East, m.s-1, m.s-1,m.s-1, 1, 1, 1, Volt, m.s-1, degree, degree, degree, dbar, degree_C, m.s-1, degree
2020-09-19T00:04:03,42.805,6.029,0.053,-0.035,-0.006,105.0,107.0,102.0,13.4,1505.2,325.2,-0.7,1.8,2470.415,13.3,0.063,123.4
2020-09-19T00:07:04,42.805,6.029,0.027,-0.018,-0.006,106.0,106.0,102.0,13.4,1505.3,327.4,-0.7,1.8,2470.424,13.31,0.032,123.7
2020-09-19T00:10:03,42.805,6.029,0.03,-0.019,0.013,105.0,107.0,102.0,13.4,1505.3,325.9,-0.7,1.8,2470.411,13.32,0.035,122.3
2020-09-19T00:13:03,42.805,6.029,0.033,-0.034,0.011,104.0,107.0,103.0,13.4,1505.3,324.2,-0.7,1.8,2470.435,13.32,0.047,135.9
2020-09-19T00:16:04,42.805,6.029,0.03,-0.019,0.004,105.0,107.0,102.0,13.4,1505.3,326.8,-0.7,1.8,2470.391,13.32,0.035,122.3
2020-09-19T00:19:03,42.805,6.029,0.012,-0.034,0.006,105.0,107.0,102.0,13.4,1505.3,326.9,-0.7,1.8,2470.427,13.32,0.036,160.6
2020-09-19T00:22:03,42.805,6.029,0.022,-0.037,-0.019,106.0,106.0,103.0,13.4,1505.3,323.3,-0.7,1.9,2470.392,13.32,0.043,149.3
2020-09-19T00:25:03,42.805,6.029,0.004,-0.035,-0.013,104.0,106.0,102.0,13.3,1505.3,325.0,-0.7,1.8,2470.377,13.32,0.035,173.5
2020-09-19T00:28:03,42.805,6.029,0.04,-0.051,-0.004,105.0,105.0,102.0,13.3,1505.3,326.8,-0.7,1.8,2470.385,13.32,0.064,141.9
2020-09-19T00:31:03,42.805,6.029,0.05,-0.055,-0.026,104.0,106.0,103.0,13.4,1505.3,327.2,-0.7,1.8,2470.379,13.32,0.074,137.7
2020-09-19T00:34:03,42.805,6.029,0.037,-0.053,0.0,104.0,105.0,103.0,13.3,1505.3,326.8,-0.7,1.8,2470.384,13.32,0.064,145.1
2020-09-19T00:37:03,42.805,6.029,0.037,-0.038,-0.006,103.0,106.0,103.0,13.4,1505.3,325.1,-0.7,1.8,2470.387,13.32,0.053,135.8
2020-09-19T00:40:03,42.805,6.029,0.024,-0.033,-0.009,103.0,107.0,102.0,13.4,1505.3,323.5,-0.7,1.8,2470.369,13.32,0.04,144.0
2020-09-19T00:43:03,42.805,6.029,0.006,-0.02,0.022,105.0,107.0,102.0,13.3,1505.3,324.1,-0.7,1.8,2470.37,13.32,0.02,163.3
2020-09-19T00:46:05,42.805,6.029,0.009,-0.041,-0.018,105.0,106.0,102.0,13.4,1505.3,323.8,-0.7,1.8,2470.366,13.32,0.041,167.6
2020-09-19T00:49:03,42.805,6.029,0.02,-0.034,0.049,106.0,106.0,103.0,13.4,1505.3,328.2,-0.7,1.8,2470.379,13.33,0.039,149.5
2020-09-19T00:52:03,42.805,6.029,0.026,-0.05,-0.012,104.0,105.0,103.0,13.3,1505.3,328.5,-0.7,1.8,2470.376,13.33,0.056,152.5
2020-09-19T00:55:03,42.805,6.029,0.02,-0.043,0.009,103.0,107.0,102.0,13.4,1505.3,326.1,-0.7,1.8,2470.352,13.32,0.047,155.1
2020-09-19T00:58:04,42.805,6.029,0.027,-0.051,-0.028,106.0,103.0,103.0,13.4,1505.3,322.8,-0.7,1.9,2470.358,13.32,0.057,152.1
2020-09-19T01:04:03,42.805,6.029,0.025,-0.036,-0.012,104.0,107.0,102.0,13.4,1505.2,326.9,-0.8,1.8,2470.387,13.3,0.043,145.2
2020-09-19T01:07:03,42.805,6.029,0.02,-0.002,0.014,105.0,106.0,103.0,13.4,1505.3,327.1,-0.7,1.8,2470.359,13.31,0.02,95.7
2020-09-19T01:10:03,42.805,6.029,0.018,-0.025,0.014,103.0,106.0,102.0,13.4,1505.3,322.6,-0.7,1.8,2470.337,13.32,0.03,144.2
2020-09-19T01:13:03,42.805,6.029,0.009,-0.034,-0.005,103.0,106.0,101.0,13.3,1505.3,326.4,-0.7,1.9,2470.361,13.32,0.035,165.2
2020-09-19T01:16:03,42.805,6.029,0.012,-0.034,0.002,104.0,106.0,102.0,13.4,1505.3,325.2,-0.7,1.8,2470.412,13.32,0.036,160.6
2020-09-19T01:19:03,42.805,6.029,0.0,-0.025,-0.021,104.0,107.0,102.0,13.3,1505.3,324.5,-0.7,1.8,2470.384,13.32,0.025,180.0
2020-09-19T01:22:03,42.805,6.029,-0.001,-0.027,-0.019,104.0,108.0,101.0,13.4,1505.3,324.6,-0.7,1.8,2470.307,13.32,0.027,182.1
2020-09-19T01:25:03,42.805,6.029,0.012,-0.047,-0.039,104.0,106.0,103.0,13.4,1505.3,328.3,-0.7,1.8,2470.348,13.32,0.048,165.7
2020-09-19T01:28:03,42.805,6.029,0.045,-0.038,-0.001,103.0,106.0,102.0,13.4,1505.3,327.8,-0.7,1.8,2470.291,13.32,0.058,130.2
2020-09-19T01:31:03,42.805,6.029,0.017,-0.014,0.009,104.0,107.0,102.0,13.3,1505.3,327.4,-0.7,1.8,2470.318,13.32,0.022,129.5
2020-09-19T01:34:03,42.805,6.029,0.013,-0.039,-0.006,107.0,107.0,103.0,13.4,1505.3,327.7,-0.7,1.8,2470.302,13.32,0.041,161.6
2020-09-19T01:37:03,42.805,6.029,-0.012,-0.049,-0.012,103.0,106.0,103.0,13.4,1505.3,328.5,-0.7,1.8,2470.29,13.33,0.05,193.8
2020-09-19T01:40:03,42.805,6.029,0.031,-0.026,-0.009,107.0,107.0,102.0,13.4,1505.3,327.2,-0.7,1.8,2470.351,13.32,0.04,130.0
2020-09-19T01:43:03,42.805,6.029,-0.005,-0.027,-0.03,106.0,107.0,102.0,13.4,1505.3,327.0,-0.7,1.8,2470.305,13.32,0.027,190.5
2020-09-19T01:46:03,42.805,6.029,0.022,-0.049,0.005,105.0,106.0,101.0,13.4,1505.3,328.2,-0.7,1.9,2470.334,13.32,0.053,155.8
2020-09-19T01:49:03,42.805,6.029,0.016,-0.031,-0.004,106.0,106.0,103.0,13.4,1505.3,325.1,-0.7,1.9,2470.326,13.32,0.034,152.7
2020-09-19T01:52:03,42.805,6.029,0.048,-0.021,0.024,106.0,106.0,103.0,13.4,1505.3,325.2,-0.7,1.8,2470.315,13.32,0.052,113.6
2020-09-19T01:55:03,42.805,6.029,0.048,-0.033,0.025,104.0,105.0,103.0,13.4,1505.3,325.6,-0.7,1.8,2470.293,13.32,0.058,124.5
2020-09-19T01:58:03,42.805,6.029,0.01,-0.035,-0.021,105.0,106.0,102.0,13.4,1505.3,325.9,-0.7,1.8,2470.3,13.32,0.036,164.1
2020-09-19T02:04:04,42.805,6.029,0.024,-0.036,-0.005,105.0,105.0,102.0,13.4,1505.2,323.8,-0.7,1.8,2470.339,13.3,0.043,146.3
2020-09-19T02:07:03,42.805,6.029,0.02,-0.03,0.002,104.0,106.0,103.0,13.4,1505.3,324.4,-0.7,1.8,2470.315,13.31,0.036,146.3
2020-09-19T02:10:03,42.805,6.029,0.016,-0.029,-0.002,106.0,104.0,102.0,13.4,1505.3,326.9,-0.7,1.8,2470.309,13.32,0.033,151.1
2020-09-19T02:13:03,42.805,6.029,0.02,-0.031,-0.021,106.0,106.0,102.0,13.4,1505.3,326.4,-0.7,1.8,2470.329,13.32,0.036,147.2
2020-09-19T02:16:03,42.805,6.029,0.01,-0.017,-0.013,107.0,105.0,102.0,13.4,1505.3,324.9,-0.7,1.8,2470.288,13.32,0.019,149.5
2020-09-19T02:19:03,42.805,6.029,-0.015,-0.021,0.001,106.0,107.0,103.0,13.4,1505.3,325.5,-0.7,1.8,2470.307,13.32,0.025,215.5
2020-09-19T02:22:04,42.805,6.029,0.005,-0.018,0.026,108.0,106.0,102.0,13.4,1505.3,324.7,-0.7,1.9,2470.282,13.32,0.018,164.5
2020-09-19T02:25:03,42.805,6.029,0.009,-0.044,-0.026,105.0,107.0,103.0,13.4,1505.3,323.7,-0.7,1.8,2470.258,13.32,0.044,168.4
2020-09-19T02:28:03,42.805,6.029,0.024,-0.025,0.037,107.0,106.0,102.0,13.3,1505.3,326.2,-0.7,1.8,2470.263,13.33,0.034,136.2
2020-09-19T02:31:04,42.805,6.029,0.031,-0.024,0.015,107.0,104.0,101.0,13.4,1505.3,327.1,-0.7,1.8,2470.275,13.32,0.039,127.7
2020-09-19T02:34:03,42.805,6.029,0.02,-0.053,-0.019,104.0,106.0,102.0,13.4,1505.3,327.9,-0.7,1.8,2470.297,13.32,0.056,159.3
2020-09-19T02:37:03,42.805,6.029,0.019,-0.031,-0.011,103.0,106.0,102.0,13.4,1505.3,325.0,-0.7,1.8,2470.334,13.32,0.036,148.5
2020-09-19T02:40:03,42.805,6.029,0.007,-0.038,0.01,105.0,106.0,102.0,13.3,1505.3,327.9,-0.7,1.8,2470.287,13.32,0.038,169.6
2020-09-19T02:43:03,42.805,6.029,0.003,-0.029,-0.021,104.0,106.0,103.0,13.3,1505.3,326.4,-0.7,1.8,2470.264,13.32,0.029,174.1
2020-09-19T02:46:03,42.805,6.029,0.03,-0.037,0.03,104.0,105.0,103.0,13.4,1505.3,327.7,-0.7,1.8,2470.293,13.32,0.047,141.0
2020-09-19T02:49:03,42.805,6.029,0.023,-0.039,-0.011,105.0,105.0,102.0,13.4,1505.3,327.9,-0.7,1.8,2470.276,13.33,0.045,149.5
2020-09-19T02:52:03,42.805,6.029,0.021,-0.039,0.007,106.0,106.0,102.0,13.4,1505.3,324.1,-0.7,1.8,2470.273,13.33,0.044,151.7
2020-09-19T02:55:03,42.805,6.029,0.008,-0.026,-0.019,107.0,105.0,102.0,13.3,1505.3,322.7,-0.7,1.8,2470.275,13.33,0.027,162.9
2020-09-19T02:58:03,42.805,6.029,0.012,-0.045,-0.011,106.0,105.0,103.0,13.3,1505.3,326.9,-0.7,1.8,2470.278,13.33,0.046,165.1
2020-09-19T03:04:03,42.805,6.029,0.002,-0.017,-0.007,105.0,106.0,102.0,13.4,1505.3,327.4,-0.7,1.8,2470.3,13.31,0.017,173.3
2020-09-19T03:07:03,42.805,6.029,0.025,-0.018,0.025,104.0,107.0,101.0,13.4,1505.3,323.7,-0.7,1.8,2470.32,13.31,0.03,125.8
2020-09-19T03:10:03,42.805,6.029,0.001,-0.032,0.009,105.0,105.0,102.0,13.4,1505.3,323.4,-0.7,1.8,2470.321,13.32,0.032,178.2
2020-09-19T03:13:04,42.805,6.029,0.013,-0.03,0.0,105.0,106.0,102.0,13.4,1505.3,326.5,-0.7,1.9,2470.314,13.32,0.032,156.6
2020-09-19T03:16:03,42.805,6.029,0.01,-0.034,0.002,105.0,105.0,103.0,13.4,1505.3,324.6,-0.7,1.8,2470.279,13.32,0.035,163.6
2020-09-19T03:19:03,42.805,6.029,0.017,-0.041,0.009,105.0,106.0,102.0,13.4,1505.3,326.8,-0.7,1.8,2470.275,13.32,0.044,157.5
2020-09-19T03:22:03,42.805,6.029,0.036,-0.021,0.043,103.0,105.0,102.0,13.4,1505.3,325.6,-0.7,1.8,2470.268,13.32,0.041,120.3
2020-09-19T03:25:03,42.805,6.029,0.014,-0.031,0.025,105.0,104.0,102.0,13.4,1505.3,327.0,-0.7,1.8,2470.325,13.32,0.034,155.7
2020-09-19T03:28:03,42.805,6.029,0.018,-0.03,-0.004,105.0,105.0,101.0,13.4,1505.3,324.8,-0.7,1.9,2470.303,13.33,0.034,149.0
2020-09-19T03:31:03,42.805,6.029,0.018,-0.028,-0.014,103.0,106.0,102.0,13.4,1505.3,326.0,-0.7,1.8,2470.307,13.33,0.033,147.3
2020-09-19T03:34:03,42.805,6.029,0.031,-0.05,-0.012,105.0,105.0,102.0,13.4,1505.3,328.4,-0.7,1.8,2470.271,13.33,0.058,148.2
2020-09-19T03:37:03,42.805,6.029,0.02,-0.044,0.016,103.0,105.0,102.0,13.4,1505.3,326.6,-0.7,1.8,2470.278,13.33,0.048,155.6
2020-09-19T03:40:03,42.805,6.029,0.02,-0.028,0.011,104.0,104.0,102.0,13.3,1505.3,327.5,-0.7,1.8,2470.276,13.33,0.034,144.5
2020-09-19T03:43:03,42.805,6.029,-0.012,-0.036,-0.047,104.0,105.0,101.0,13.3,1505.3,324.8,-0.7,1.8,2470.302,13.32,0.037,198.4
2020-09-19T03:46:03,42.805,6.029,0.002,-0.032,-0.005,104.0,106.0,102.0,13.4,1505.3,327.7,-0.7,1.9,2470.269,13.33,0.032,176.4
2020-09-19T03:49:03,42.805,6.029,0.018,-0.03,0.001,104.0,107.0,103.0,13.3,1505.3,324.6,-0.7,1.8,2470.295,13.33,0.034,149.0
2020-09-19T03:52:03,42.805,6.029,0.01,-0.058,0.004,104.0,106.0,102.0,13.4,1505.3,326.0,-0.7,1.8,2470.288,13.33,0.058,170.2
2020-09-19T03:55:03,42.805,6.029,-0.004,-0.034,0.002,105.0,107.0,101.0,13.3,1505.3,327.6,-0.7,1.8,2470.249,13.33,0.034,186.7
2020-09-19T03:58:03,42.805,6.029,0.012,-0.028,-0.046,105.0,106.0,102.0,13.4,1505.3,325.2,-0.7,1.9,2470.296,13.33,0.03,156.8
2020-09-19T04:01:05,42.805,6.029,0.03,-0.017,0.012,105.0,106.0,102.0,13.4,1505.3,323.6,-0.7,1.8,2470.347,13.33,0.034,119.5
2020-09-19T04:04:03,42.805,6.029,-0.012,-0.025,-0.023,104.0,107.0,103.0,13.3,1505.3,325.9,-0.7,1.8,2470.343,13.33,0.027,205.6
2020-09-19T04:07:03,42.805,6.029,0.015,-0.028,-0.002,107.0,108.0,102.0,13.3,1505.3,325.8,-0.7,1.8,2470.283,13.33,0.031,151.8
2020-09-19T04:10:04,42.805,6.029,-0.012,-0.03,-0.005,105.0,106.0,104.0,13.4,1505.3,325.6,-0.7,1.8,2470.337,13.33,0.032,201.8
2020-09-19T04:16:03,42.805,6.029,0.032,-0.031,-0.019,105.0,105.0,103.0,13.3,1505.3,326.4,-0.7,1.8,2470.328,13.31,0.044,134.1
2020-09-19T04:19:03,42.805,6.029,0.017,-0.023,-0.025,104.0,107.0,103.0,13.4,1505.3,323.5,-0.7,1.8,2470.319,13.31,0.028,143.5
2020-09-19T04:22:03,42.805,6.029,0.043,-0.039,0.01,104.0,105.0,103.0,13.4,1505.3,324.3,-0.7,1.8,2470.264,13.32,0.058,132.2
2020-09-19T04:25:04,42.805,6.029,-0.023,-0.028,-0.045,104.0,106.0,102.0,13.3,1505.3,327.0,-0.7,1.8,2470.322,13.32,0.036,219.4
2020-09-19T04:28:03,42.805,6.029,0.016,-0.042,-0.008,104.0,106.0,103.0,13.4,1505.3,327.1,-0.7,1.8,2470.342,13.32,0.044,159.1
2020-09-19T04:31:03,42.805,6.029,0.0,-0.026,-0.005,104.0,106.0,103.0,13.4,1505.3,324.3,-0.7,1.8,2470.33,13.32,0.026,180.0
2020-09-19T04:34:03,42.805,6.029,0.005,-0.031,-0.022,104.0,108.0,103.0,13.3,1505.3,325.2,-0.7,1.8,2470.36,13.33,0.031,170.8
2020-09-19T04:37:04,42.805,6.029,0.024,-0.019,-0.014,105.0,106.0,102.0,13.4,1505.3,326.2,-0.7,1.9,2470.355,13.33,0.03,128.4
2020-09-19T04:40:03,42.805,6.029,0.005,-0.048,-0.011,105.0,104.0,102.0,13.4,1505.3,323.4,-0.7,1.9,2470.314,13.33,0.048,174.1
2020-09-19T04:43:04,42.805,6.029,0.0,-0.018,0.006,105.0,106.0,102.0,13.4,1505.3,327.5,-0.7,1.9,2470.314,13.33,0.018,180.0
2020-09-19T04:46:03,42.805,6.029,-0.001,-0.028,0.016,105.0,107.0,102.0,13.3,1505.3,326.6,-0.7,1.9,2470.333,13.33,0.028,182.0
2020-09-19T04:49:03,42.805,6.029,0.011,-0.023,-0.033,106.0,105.0,102.0,13.4,1505.3,328.3,-0.7,1.8,2470.359,13.33,0.025,154.4
2020-09-19T04:52:03,42.805,6.029,0.009,-0.025,-0.028,104.0,106.0,102.0,13.4,1505.3,325.2,-0.7,1.8,2470.315,13.33,0.026,160.2
2020-09-19T04:55:03,42.805,6.029,0.022,-0.023,0.008,106.0,105.0,103.0,13.3,1505.3,322.9,-0.7,1.8,2470.337,13.33,0.031,136.3
2020-09-19T04:58:03,42.805,6.029,0.024,-0.034,0.008,105.0,107.0,102.0,13.4,1505.3,325.2,-0.7,1.8,2470.331,13.33,0.041,144.8
2020-09-19T05:04:03,42.805,6.029,0.029,-0.032,0.001,105.0,105.0,103.0,13.4,1505.3,326.9,-0.7,1.8,2470.44,13.31,0.043,137.8
2020-09-19T05:07:03,42.805,6.029,0.019,-0.038,0.006,103.0,105.0,102.0,13.4,1505.3,327.8,-0.7,1.9,2470.376,13.31,0.042,153.4
2020-09-19T05:10:03,42.805,6.029,0.014,-0.034,-0.033,104.0,107.0,102.0,13.4,1505.3,323.4,-0.7,1.8,2470.388,13.32,0.036,157.6
2020-09-19T05:13:04,42.805,6.029,0.017,-0.023,-0.021,107.0,107.0,102.0,13.4,1505.3,326.7,-0.7,1.8,2470.406,13.32,0.028,143.5
2020-09-19T05:16:03,42.805,6.029,0.004,-0.015,0.026,105.0,107.0,103.0,13.4,1505.3,326.8,-0.7,1.8,2470.387,13.32,0.015,165.1
2020-09-19T05:19:03,42.805,6.029,0.013,0.008,0.031,105.0,105.0,103.0,13.3,1505.3,325.2,-0.7,1.8,2470.357,13.33,0.015,58.4
2020-09-19T05:22:03,42.805,6.029,0.011,-0.027,-0.012,104.0,107.0,101.0,13.4,1505.3,324.2,-0.7,1.8,2470.38,13.33,0.029,157.8
2020-09-19T05:25:03,42.805,6.029,0.039,-0.031,-0.003,105.0,106.0,102.0,13.3,1505.3,326.1,-0.7,1.9,2470.369,13.33,0.049,128.5
2020-09-19T05:28:04,42.805,6.029,0.042,-0.017,0.0,104.0,105.0,102.0,13.4,1505.3,327.6,-0.7,1.8,2470.418,13.33,0.045,112.0
2020-09-19T05:31:03,42.805,6.029,-0.012,-0.024,0.005,104.0,106.0,102.0,13.4,1505.3,323.5,-0.7,1.8,2470.394,13.33,0.026,206.6
2020-09-19T05:34:03,42.805,6.029,0.026,-0.008,-0.013,105.0,106.0,102.0,13.4,1505.3,327.2,-0.7,1.8,2470.377,13.33,0.027,107.1
2020-09-19T05:37:03,42.805,6.029,0.023,-0.014,-0.012,103.0,105.0,102.0,13.3,1505.3,324.4,-0.7,1.8,2470.387,13.33,0.026,121.3
2020-09-19T05:40:03,42.805,6.029,0.026,-0.031,-0.011,103.0,105.0,102.0,13.4,1505.3,327.7,-0.7,1.8,2470.367,13.33,0.04,140.0
2020-09-19T05:43:03,42.805,6.029,0.014,-0.01,0.01,105.0,106.0,103.0,13.3,1505.3,328.4,-0.7,1.9,2470.369,13.33,0.017,125.5
2020-09-19T05:46:04,42.805,6.029,0.018,-0.007,-0.015,103.0,106.0,104.0,13.4,1505.3,327.6,-0.7,1.8,2470.402,13.33,0.019,111.2
2020-09-19T05:49:03,42.805,6.029,-0.013,-0.014,0.005,104.0,105.0,103.0,13.4,1505.3,328.0,-0.7,1.8,2470.39,13.33,0.019,222.9
2020-09-19T05:52:03,42.805,6.029,0.026,-0.033,0.004,103.0,106.0,102.0,13.4,1505.3,328.5,-0.7,1.9,2470.392,13.33,0.042,141.8
2020-09-19T05:55:03,42.805,6.029,0.05,-0.029,0.027,104.0,105.0,102.0,13.3,1505.3,326.5,-0.7,1.8,2470.445,13.33,0.057,120.1
2020-09-19T05:58:03,42.805,6.029,0.007,-0.013,-0.025,104.0,104.0,102.0,13.3,1505.3,325.0,-0.7,1.8,2470.406,13.33,0.014,151.7
2020-09-19T06:04:03,42.805,6.029,-0.006,-0.031,-0.019,103.0,108.0,102.0,13.4,1505.3,322.8,-0.7,1.8,2470.472,13.31,0.031,191.0
2020-09-19T06:07:03,42.805,6.029,-0.001,-0.018,-0.04,105.0,106.0,102.0,13.3,1505.3,324.2,-0.7,1.8,2470.428,13.31,0.018,183.2
2020-09-19T06:10:03,42.805,6.029,0.011,0.0,0.036,103.0,106.0,102.0,13.4,1505.3,328.2,-0.7,1.8,2470.442,13.32,0.011,90.0
2020-09-19T06:13:03,42.805,6.029,0.023,-0.02,-0.004,105.0,105.0,103.0,13.3,1505.3,326.8,-0.7,1.8,2470.434,13.32,0.03,131.0
2020-09-19T06:16:03,42.805,6.029,0.033,-0.018,-0.005,105.0,105.0,102.0,13.4,1505.3,327.4,-0.7,1.8,2470.449,13.32,0.037,118.6
2020-09-19T06:19:03,42.805,6.029,0.025,-0.016,0.013,105.0,105.0,102.0,13.4,1505.3,324.8,-0.7,1.8,2470.469,13.33,0.029,122.6
2020-09-19T06:22:03,42.805,6.029,-0.007,-0.029,0.0,105.0,106.0,103.0,13.4,1505.3,322.8,-0.7,1.9,2470.471,13.33,0.029,193.6
2020-09-19T06:25:03,42.805,6.029,0.014,-0.028,-0.005,103.0,107.0,102.0,13.4,1505.3,323.9,-0.7,1.8,2470.469,13.33,0.031,153.4
2020-09-19T06:28:03,42.805,6.029,-0.018,-0.025,-0.021,106.0,106.0,102.0,13.4,1505.3,328.4,-0.7,1.8,2470.436,13.33,0.03,215.8
2020-09-19T06:31:04,42.805,6.029,-0.018,-0.026,-0.056,104.0,107.0,103.0,13.4,1505.3,325.3,-0.7,1.8,2470.469,13.33,0.031,214.7
2020-09-19T06:34:03,42.805,6.029,0.005,-0.021,0.0,102.0,106.0,102.0,13.4,1505.3,326.7,-0.7,1.9,2470.479,13.33,0.021,166.6
2020-09-19T06:37:03,42.805,6.029,0.007,-0.029,-0.002,102.0,105.0,102.0,13.4,1505.3,326.0,-0.7,1.8,2470.41,13.33,0.029,166.4
2020-09-19T06:40:03,42.805,6.029,0.002,-0.01,-0.02,106.0,105.0,101.0,13.3,1505.3,326.0,-0.7,1.8,2470.438,13.33,0.01,168.7
2020-09-19T06:43:03,42.805,6.029,0.007,-0.008,0.01,104.0,105.0,104.0,13.4,1505.3,325.8,-0.7,1.8,2470.43,13.33,0.01,138.8
2020-09-19T06:46:03,42.805,6.029,0.003,-0.022,0.011,105.0,107.0,104.0,13.3,1505.3,326.3,-0.7,1.8,2470.473,13.33,0.022,172.2
2020-09-19T06:49:03,42.805,6.029,0.013,-0.019,-0.026,105.0,107.0,102.0,13.4,1505.3,326.4,-0.7,1.8,2470.483,13.33,0.023,145.6
2020-09-19T06:52:03,42.805,6.029,0.013,-0.035,0.014,106.0,106.0,103.0,13.4,1505.3,324.3,-0.7,1.8,2470.498,13.33,0.037,159.6
2020-09-19T06:55:03,42.805,6.029,-0.012,-0.013,-0.024,106.0,106.0,103.0,13.4,1505.3,325.7,-0.7,1.8,2470.497,13.33,0.017,222.7
2020-09-19T06:58:03,42.805,6.029,0.019,-0.019,0.011,105.0,110.0,102.0,13.3,1505.3,325.6,-0.7,1.8,2470.47,13.33,0.026,135.0
2020-09-19T07:04:03,42.805,6.029,0.013,-0.015,0.008,106.0,107.0,103.0,13.3,1505.3,323.8,-0.7,1.8,2470.518,13.31,0.019,139.1
2020-09-19T07:07:03,42.805,6.029,-0.008,-0.018,-0.019,106.0,109.0,102.0,13.3,1505.3,325.7,-0.7,1.9,2470.518,13.31,0.019,204.0
2020-09-19T07:10:03,42.805,6.029,0.025,-0.013,0.014,105.0,105.0,103.0,13.4,1505.3,323.8,-0.7,1.8,2470.484,13.32,0.028,117.5
2020-09-19T07:13:03,42.805,6.029,0.044,-0.029,0.028,104.0,107.0,101.0,13.4,1505.3,326.2,-0.7,1.8,2470.53,13.32,0.052,123.4
2020-09-19T07:16:03,42.805,6.029,0.035,-0.023,0.012,103.0,108.0,102.0,13.4,1505.3,326.2,-0.7,1.8,2470.532,13.33,0.041,123.3
2020-09-19T07:19:03,42.805,6.029,-0.027,-0.025,-0.039,105.0,106.0,103.0,13.4,1505.3,322.9,-0.7,1.8,2470.52,13.33,0.036,227.2
2020-09-19T07:22:03,42.805,6.029,0.001,-0.028,-0.042,105.0,106.0,102.0,13.4,1505.3,324.1,-0.7,1.8,2470.535,13.33,0.028,178.0
2020-09-19T07:25:03,42.805,6.029,0.02,-0.028,-0.024,103.0,106.0,102.0,13.4,1505.3,324.6,-0.7,1.8,2470.533,13.33,0.034,144.5
2020-09-19T07:28:03,42.805,6.029,0.002,-0.022,-0.029,104.0,106.0,102.0,13.3,1505.3,323.3,-0.7,1.8,2470.526,13.33,0.022,174.8
2020-09-19T07:31:03,42.805,6.029,-0.009,-0.016,-0.038,105.0,107.0,101.0,13.4,1505.3,324.7,-0.7,1.8,2470.531,13.33,0.018,209.4
2020-09-19T07:34:03,42.805,6.029,-0.004,-0.012,-0.029,104.0,106.0,102.0,13.3,1505.3,324.3,-0.7,1.8,2470.475,13.33,0.012,198.4
2020-09-19T07:37:03,42.805,6.029,0.015,-0.005,-0.01,108.0,104.0,102.0,13.4,1505.3,323.3,-0.7,1.8,2470.504,13.33,0.015,108.4
2020-09-19T07:40:03,42.805,6.029,0.035,-0.018,0.005,105.0,106.0,102.0,13.4,1505.3,322.7,-0.7,1.8,2470.492,13.33,0.039,117.2
2020-09-19T07:43:03,42.805,6.029,0.014,-0.009,0.028,105.0,110.0,103.0,13.4,1505.3,327.9,-0.7,1.8,2470.486,13.33,0.016,122.7
2020-09-19T07:46:03,42.805,6.029,0.031,-0.025,-0.031,104.0,107.0,102.0,13.4,1505.3,326.0,-0.7,1.8,2470.475,13.33,0.039,128.9
2020-09-19T07:49:03,42.805,6.029,0.021,-0.019,-0.002,105.0,107.0,102.0,13.4,1505.3,324.1,-0.7,1.8,2470.47,13.33,0.028,132.1
2020-09-19T07:52:03,42.805,6.029,0.0,-0.009,0.003,106.0,107.0,102.0,13.4,1505.3,324.0,-0.7,1.8,2470.463,13.33,0.009,180.0
2020-09-19T07:55:03,42.805,6.029,0.02,-0.014,-0.009,105.0,109.0,103.0,13.4,1505.3,327.4,-0.7,1.8,2470.515,13.33,0.024,125.0
2020-09-19T07:58:03,42.805,6.029,-0.003,-0.022,-0.03,104.0,109.0,102.0,13.4,1505.3,324.6,-0.7,1.8,2470.524,13.33,0.022,187.8
2020-09-19T08:04:03,42.805,6.029,0.043,-0.009,0.014,104.0,105.0,103.0,13.4,1505.3,323.5,-0.7,1.8,2470.546,13.31,0.043,101.8
2020-09-19T08:07:04,42.805,6.029,0.019,-0.009,0.013,106.0,109.0,103.0,13.3,1505.3,325.4,-0.7,1.8,2470.514,13.31,0.021,115.3
2020-09-19T08:10:03,42.805,6.029,0.027,-0.04,-0.024,106.0,107.0,102.0,13.4,1505.3,325.3,-0.7,1.8,2470.537,13.32,0.048,146.0
2020-09-19T08:13:03,42.805,6.029,0.025,0.006,0.006,105.0,108.0,102.0,13.4,1505.3,326.3,-0.7,1.8,2470.555,13.32,0.025,76.5
2020-09-19T08:16:03,42.805,6.029,0.006,-0.027,-0.007,107.0,107.0,102.0,13.4,1505.3,326.3,-0.6,1.8,2470.547,13.32,0.027,167.5
2020-09-19T08:19:03,42.805,6.029,0.017,-0.009,0.005,104.0,109.0,102.0,13.4,1505.3,326.3,-0.7,1.8,2470.571,13.33,0.019,117.9
2020-09-19T08:22:03,42.805,6.029,-0.008,-0.022,0.015,105.0,107.0,102.0,13.3,1505.3,324.7,-0.7,1.8,2470.538,13.33,0.023,200.0
2020-09-19T08:25:03,42.805,6.029,-0.013,-0.015,-0.048,104.0,108.0,102.0,13.3,1505.3,324.6,-0.7,1.8,2470.551,13.33,0.019,220.9
2020-09-19T08:28:03,42.805,6.029,0.026,-0.013,-0.004,103.0,106.0,103.0,13.4,1505.3,325.0,-0.7,1.8,2470.515,13.33,0.029,116.6
2020-09-19T08:31:03,42.805,6.029,0.004,0.0,0.001,105.0,107.0,102.0,13.3,1505.3,326.5,-0.7,1.9,2470.509,13.33,0.004,90.0
2020-09-19T08:34:03,42.805,6.029,-0.016,-0.013,-0.023,104.0,107.0,103.0,13.3,1505.3,326.2,-0.7,1.8,2470.564,13.33,0.02,230.9
2020-09-19T08:37:03,42.805,6.029,0.018,-0.017,-0.001,105.0,107.0,102.0,13.3,1505.3,326.0,-0.7,1.8,2470.51,13.33,0.024,133.4
2020-09-19T08:40:03,42.805,6.029,0.04,-0.006,0.011,105.0,108.0,103.0,13.4,1505.3,327.0,-0.7,1.8,2470.511,13.33,0.04,98.5
2020-09-19T08:43:03,42.805,6.029,0.021,-0.004,0.008,105.0,107.0,104.0,13.4,1505.3,325.9,-0.7,1.8,2470.537,13.33,0.021,100.8
2020-09-19T08:46:03,42.805,6.029,0.003,-0.015,0.0,106.0,109.0,103.0,13.4,1505.3,326.4,-0.7,1.8,2470.488,13.33,0.015,168.7
2020-09-19T08:49:03,42.805,6.029,0.009,-0.038,-0.02,104.0,105.0,102.0,13.4,1505.3,326.3,-0.7,1.8,2470.477,13.33,0.039,166.7
2020-09-19T08:52:03,42.805,6.029,0.017,-0.017,0.003,106.0,107.0,102.0,13.3,1505.3,326.8,-0.7,1.8,2470.491,13.33,0.024,135.0
2020-09-19T08:55:04,42.805,6.029,0.025,-0.022,0.002,103.0,107.0,103.0,13.3,1505.3,326.4,-0.7,1.8,2470.509,13.32,0.033,131.3
2020-09-19T08:58:03,42.805,6.029,0.032,-0.012,-0.005,104.0,106.0,102.0,13.4,1505.3,325.0,-0.7,1.8,2470.54,13.33,0.034,110.6
2020-09-19T09:04:03,42.805,6.029,0.036,-0.022,0.004,104.0,105.0,102.0,13.3,1505.3,324.7,-0.8,1.8,2470.505,13.31,0.042,121.4
2020-09-19T09:07:03,42.805,6.029,0.024,-0.005,0.015,106.0,107.0,103.0,13.4,1505.3,323.2,-0.7,1.8,2470.546,13.31,0.024,101.8
2020-09-19T09:10:03,42.805,6.029,0.024,-0.019,0.008,106.0,106.0,101.0,13.4,1505.3,327.1,-0.7,1.8,2470.516,13.32,0.03,128.4
2020-09-19T09:13:03,42.805,6.029,0.023,-0.001,-0.01,105.0,107.0,103.0,13.4,1505.3,324.2,-0.7,1.8,2470.496,13.32,0.023,92.5
2020-09-19T09:16:03,42.805,6.029,0.018,-0.023,0.0,105.0,106.0,103.0,13.4,1505.3,326.3,-0.7,1.8,2470.549,13.32,0.029,142.0
2020-09-19T09:19:03,42.805,6.029,0.023,-0.025,-0.013,105.0,106.0,103.0,13.4,1505.3,323.5,-0.7,1.9,2470.522,13.32,0.033,137.4
2020-09-19T09:22:03,42.805,6.029,0.042,-0.021,-0.013,104.0,107.0,102.0,13.4,1505.3,327.6,-0.7,1.8,2470.523,13.32,0.046,116.6
2020-09-19T09:25:03,42.805,6.029,0.036,-0.022,-0.012,104.0,108.0,103.0,13.3,1505.3,324.9,-0.7,1.8,2470.499,13.32,0.042,121.4
2020-09-19T09:28:03,42.805,6.029,0.023,-0.016,-0.007,105.0,105.0,103.0,13.4,1505.3,327.4,-0.7,1.9,2470.488,13.32,0.028,124.8
2020-09-19T09:31:03,42.805,6.029,0.016,-0.002,0.019,105.0,105.0,102.0,13.4,1505.3,323.1,-0.7,1.8,2470.501,13.32,0.016,97.1
2020-09-19T09:34:03,42.805,6.029,0.027,-0.018,0.009,104.0,106.0,102.0,13.4,1505.3,326.5,-0.6,1.8,2470.511,13.32,0.032,123.7
2020-09-19T09:37:04,42.805,6.029,0.0,-0.021,-0.04,105.0,103.0,103.0,13.4,1505.3,326.4,-0.7,1.8,2470.493,13.32,0.021,180.0
2020-09-19T09:40:03,42.805,6.029,0.038,-0.022,-0.004,104.0,105.0,103.0,13.4,1505.3,326.8,-0.7,1.8,2470.457,13.33,0.043,120.1
2020-09-19T09:43:03,42.805,6.029,0.036,-0.011,0.009,104.0,107.0,101.0,13.3,1505.3,325.4,-0.7,1.8,2470.462,13.32,0.037,107.0
2020-09-19T09:46:03,42.805,6.029,0.033,-0.017,0.011,105.0,105.0,102.0,13.3,1505.3,324.9,-0.7,1.9,2470.456,13.32,0.037,117.3
2020-09-19T09:49:03,42.805,6.029,0.037,-0.02,-0.005,104.0,107.0,101.0,13.4,1505.3,328.0,-0.7,1.9,2470.468,13.32,0.042,118.4
2020-09-19T09:52:03,42.805,6.029,0.039,-0.017,-0.016,104.0,107.0,102.0,13.4,1505.3,325.7,-0.7,1.8,2470.465,13.33,0.042,113.5
2020-09-19T09:55:03,42.805,6.029,0.039,-0.024,-0.008,104.0,107.0,102.0,13.3,1505.3,323.2,-0.7,1.9,2470.479,13.32,0.045,121.6